Location: Unspecified
(0.0000°N, 0.0000°E)
Time: 21:25:41
(UTC+00:00)

STARLINK-1056 - Pass Details

Date: 16 January 2020
Orbit: 548 x 551 km, 53.0° (Epoch: 29 September)

Event Time Altitude Azimuth Distance (km) Brightness Sun altitude
Rises 19:03:48 0° 318° (NW) 2,722 7.5 -12.6°
Reaches altitude 10° 19:06:04 10° 313° (NW) 1,832 6.6 -13.1°
Maximum altitude 19:10:07 52° 236° (SW) 696 4.5 -14.1°
Drops below altitude 10° 19:14:12 10° 159° (SSE) 1,842 6.3 -15.0°
Sets 19:16:30 0° 154° (SSE) 2,739 7.1 -15.6°
